Year,Month,Day,Hour,Minute,Value (Times are PST for temperature in C)
2018,07,14,00,00,15.20
2018,07,14,00,01,15.20
2018,07,14,00,02,15.20
2018,07,14,00,03,15.20
2018,07,14,00,04,15.20
2018,07,14,00,05,15.20
2018,07,14,00,06,15.20
2018,07,14,00,07,15.10
2018,07,14,00,08,15.10
2018,07,14,00,09,15.10
2018,07,14,00,10,15.10
2018,07,14,00,11,15.10
2018,07,14,00,12,15.00
2018,07,14,00,13,15.00
2018,07,14,00,14,15.00
2018,07,14,00,15,14.90
2018,07,14,00,16,14.90
2018,07,14,00,17,14.90
2018,07,14,00,18,14.90
2018,07,14,00,19,14.90
2018,07,14,00,20,14.80
2018,07,14,00,21,14.80
2018,07,14,00,22,14.80
2018,07,14,00,23,14.80
2018,07,14,00,24,14.80
2018,07,14,00,25,14.80
2018,07,14,00,26,14.70
2018,07,14,00,27,14.70
2018,07,14,00,28,14.70
2018,07,14,00,29,14.70
2018,07,14,00,30,14.70
2018,07,14,00,31,14.70
2018,07,14,00,32,14.70
2018,07,14,00,33,14.60
2018,07,14,00,34,14.60
2018,07,14,00,35,14.60
2018,07,14,00,36,14.60
2018,07,14,00,37,14.60
2018,07,14,00,38,14.60
2018,07,14,00,39,14.60
2018,07,14,00,40,14.60
2018,07,14,00,41,14.60
2018,07,14,00,42,14.60
2018,07,14,00,43,14.60
2018,07,14,00,44,14.60
2018,07,14,00,45,14.60
2018,07,14,00,46,14.60
2018,07,14,00,47,14.50
2018,07,14,00,48,14.50
2018,07,14,00,49,14.50
2018,07,14,00,50,14.50
2018,07,14,00,51,14.50
2018,07,14,00,52,14.50
2018,07,14,00,53,14.40
2018,07,14,00,54,14.40
2018,07,14,00,55,14.40
2018,07,14,00,56,14.40
2018,07,14,00,57,14.40
2018,07,14,00,58,14.40
2018,07,14,00,59,14.30
2018,07,14,01,00,14.30
2018,07,14,01,01,14.30
2018,07,14,01,02,14.30
2018,07,14,01,03,14.30
2018,07,14,01,04,14.30
2018,07,14,01,05,14.30
2018,07,14,01,06,14.30
2018,07,14,01,07,14.20
2018,07,14,01,08,14.20
2018,07,14,01,09,14.20
2018,07,14,01,10,14.20
2018,07,14,01,11,14.20
2018,07,14,01,12,14.20
2018,07,14,01,13,14.20
2018,07,14,01,14,14.20
2018,07,14,01,15,14.20
2018,07,14,01,16,14.20
2018,07,14,01,17,14.10
2018,07,14,01,18,14.10
2018,07,14,01,19,14.10
2018,07,14,01,20,14.10
2018,07,14,01,21,14.10
2018,07,14,01,22,14.10
2018,07,14,01,23,14.10
2018,07,14,01,24,14.00
2018,07,14,01,25,14.00
2018,07,14,01,26,14.00
2018,07,14,01,27,14.00
2018,07,14,01,28,14.00
2018,07,14,01,29,13.90
2018,07,14,01,30,13.90
2018,07,14,01,31,13.90
2018,07,14,01,32,13.90
2018,07,14,01,33,13.90
2018,07,14,01,34,13.90
2018,07,14,01,35,13.90
2018,07,14,01,36,13.90
2018,07,14,01,37,13.90
2018,07,14,01,38,13.90
2018,07,14,01,39,13.90
2018,07,14,01,40,13.90
2018,07,14,01,41,13.90
2018,07,14,01,42,13.80
2018,07,14,01,43,13.80
2018,07,14,01,44,13.80
2018,07,14,01,45,13.80
2018,07,14,01,46,13.80
2018,07,14,01,47,13.80
2018,07,14,01,48,13.80
2018,07,14,01,49,13.80
2018,07,14,01,50,13.80
2018,07,14,01,51,13.80
2018,07,14,01,52,13.80
2018,07,14,01,53,13.80
2018,07,14,01,54,13.80
2018,07,14,01,55,13.80
2018,07,14,01,56,13.80
2018,07,14,01,57,13.70
2018,07,14,01,58,13.70
2018,07,14,01,59,13.70
2018,07,14,02,00,13.70
2018,07,14,02,01,13.70
2018,07,14,02,02,13.60
2018,07,14,02,03,13.60
2018,07,14,02,04,13.60
2018,07,14,02,05,13.60
2018,07,14,02,06,13.60
2018,07,14,02,07,13.60
2018,07,14,02,08,13.60
2018,07,14,02,09,13.60
2018,07,14,02,10,13.50
2018,07,14,02,11,13.50
2018,07,14,02,12,13.50
2018,07,14,02,13,13.50
2018,07,14,02,14,13.50
2018,07,14,02,15,13.50
2018,07,14,02,16,13.50
2018,07,14,02,17,13.40
2018,07,14,02,18,13.40
2018,07,14,02,19,13.40
2018,07,14,02,20,13.40
2018,07,14,02,21,13.40
2018,07,14,02,22,13.40
2018,07,14,02,23,13.40
2018,07,14,02,24,13.40
2018,07,14,02,25,13.30
2018,07,14,02,26,13.30
2018,07,14,02,27,13.30
2018,07,14,02,28,13.30
2018,07,14,02,29,13.30
2018,07,14,02,30,13.30
2018,07,14,02,31,13.30
2018,07,14,02,32,13.30
2018,07,14,02,33,13.30
2018,07,14,02,34,13.20
2018,07,14,02,35,13.20
2018,07,14,02,36,13.20
2018,07,14,02,37,13.20
2018,07,14,02,38,13.20
2018,07,14,02,39,13.20
2018,07,14,02,40,13.20
2018,07,14,02,41,13.10
2018,07,14,02,42,13.10
2018,07,14,02,43,13.10
2018,07,14,02,44,13.10
2018,07,14,02,45,13.10
2018,07,14,02,46,13.10
2018,07,14,02,47,13.10
2018,07,14,02,48,13.10
2018,07,14,02,49,13.00
2018,07,14,02,50,13.00
2018,07,14,02,51,13.00
2018,07,14,02,52,13.00
2018,07,14,02,53,13.00
2018,07,14,02,54,12.90
2018,07,14,02,55,12.90
2018,07,14,02,56,12.90
2018,07,14,02,57,12.90
2018,07,14,02,58,12.90
2018,07,14,02,59,12.90
2018,07,14,03,00,12.90
2018,07,14,03,01,12.90
2018,07,14,03,02,12.90
2018,07,14,03,03,12.90
2018,07,14,03,04,12.80
2018,07,14,03,05,12.80
2018,07,14,03,06,12.80
2018,07,14,03,07,12.80
2018,07,14,03,08,12.80
2018,07,14,03,09,12.80
2018,07,14,03,10,12.80
2018,07,14,03,11,12.80
2018,07,14,03,12,12.80
2018,07,14,03,13,12.80
2018,07,14,03,14,12.80
2018,07,14,03,15,12.70
2018,07,14,03,16,12.70
2018,07,14,03,17,12.70
2018,07,14,03,18,12.70
2018,07,14,03,19,12.70
2018,07,14,03,20,12.70
2018,07,14,03,21,12.70
2018,07,14,03,22,12.70
2018,07,14,03,23,12.70
2018,07,14,03,24,12.60
2018,07,14,03,25,12.60
2018,07,14,03,26,12.60
2018,07,14,03,27,12.60
2018,07,14,03,28,12.60
2018,07,14,03,29,12.60
2018,07,14,03,30,12.60
2018,07,14,03,31,12.60
2018,07,14,03,32,12.60
2018,07,14,03,33,12.60
2018,07,14,03,34,12.60
2018,07,14,03,35,12.60
2018,07,14,03,36,12.60
2018,07,14,03,37,12.60
2018,07,14,03,38,12.50
2018,07,14,03,39,12.50
2018,07,14,03,40,12.50
2018,07,14,03,41,12.50
2018,07,14,03,42,12.50
2018,07,14,03,43,12.40
2018,07,14,03,44,12.40
2018,07,14,03,45,12.40
2018,07,14,03,46,12.40
2018,07,14,03,47,12.40
2018,07,14,03,48,12.40
2018,07,14,03,49,12.40
2018,07,14,03,50,12.40
2018,07,14,03,51,12.40
2018,07,14,03,52,12.40
2018,07,14,03,53,12.40
2018,07,14,03,54,12.40
2018,07,14,03,55,12.40
2018,07,14,03,56,12.40
2018,07,14,03,57,12.40
2018,07,14,03,58,12.40
2018,07,14,03,59,12.40
2018,07,14,04,00,12.40
2018,07,14,04,01,12.40
2018,07,14,04,02,12.40
2018,07,14,04,03,12.40
2018,07,14,04,04,12.40
2018,07,14,04,05,12.30
2018,07,14,04,06,12.30
2018,07,14,04,07,12.30
2018,07,14,04,08,12.30
2018,07,14,04,09,12.30
2018,07,14,04,10,12.30
2018,07,14,04,11,12.30
2018,07,14,04,12,12.30
2018,07,14,04,13,12.30
2018,07,14,04,14,12.30
2018,07,14,04,15,12.30
2018,07,14,04,16,12.30
2018,07,14,04,17,12.30
2018,07,14,04,18,12.30
2018,07,14,04,19,12.30
2018,07,14,04,20,12.30
2018,07,14,04,21,12.30
2018,07,14,04,22,12.30
2018,07,14,04,23,12.20
2018,07,14,04,24,12.20
2018,07,14,04,25,12.20
2018,07,14,04,26,12.20
2018,07,14,04,27,12.20
2018,07,14,04,28,12.20
2018,07,14,04,29,12.20
2018,07,14,04,30,12.20
2018,07,14,04,31,12.20
2018,07,14,04,32,12.20
2018,07,14,04,33,12.20
2018,07,14,04,34,12.10
2018,07,14,04,35,12.10
2018,07,14,04,36,12.10
2018,07,14,04,37,12.10
2018,07,14,04,38,12.10
2018,07,14,04,39,12.10
2018,07,14,04,40,12.10
2018,07,14,04,41,12.10
2018,07,14,04,42,12.10
2018,07,14,04,43,12.10
2018,07,14,04,44,12.10
2018,07,14,04,45,12.00
2018,07,14,04,46,12.10
2018,07,14,04,47,12.00
2018,07,14,04,48,12.00
2018,07,14,04,49,12.00
2018,07,14,04,50,12.00
2018,07,14,04,51,12.00
2018,07,14,04,52,12.00
2018,07,14,04,53,12.00
2018,07,14,04,54,11.90
2018,07,14,04,55,11.90
2018,07,14,04,56,11.90
2018,07,14,04,57,11.90
2018,07,14,04,58,11.90
2018,07,14,04,59,11.90
2018,07,14,05,00,11.90
2018,07,14,05,01,11.90
2018,07,14,05,02,11.90
2018,07,14,05,03,11.80
2018,07,14,05,04,11.80
2018,07,14,05,05,11.80
2018,07,14,05,06,11.80
2018,07,14,05,07,11.80
2018,07,14,05,08,11.80
2018,07,14,05,09,11.80
2018,07,14,05,10,11.80
2018,07,14,05,11,11.80
2018,07,14,05,12,11.80
2018,07,14,05,13,11.80
2018,07,14,05,14,11.80
2018,07,14,05,15,11.80
2018,07,14,05,16,11.80
2018,07,14,05,17,11.80
2018,07,14,05,18,11.70
2018,07,14,05,19,11.70
2018,07,14,05,20,11.70
2018,07,14,05,21,11.70
2018,07,14,05,22,11.70
2018,07,14,05,23,11.70
2018,07,14,05,24,11.70
2018,07,14,05,25,11.70
2018,07,14,05,26,11.70
2018,07,14,05,27,11.70
2018,07,14,05,28,11.70
2018,07,14,05,29,11.70
2018,07,14,05,30,11.70
2018,07,14,05,31,11.70
2018,07,14,05,32,11.70
2018,07,14,05,33,11.70
2018,07,14,05,34,11.70
2018,07,14,05,35,11.70
2018,07,14,05,36,11.70
2018,07,14,05,37,11.70
2018,07,14,05,38,11.70
2018,07,14,05,39,11.70
2018,07,14,05,40,11.70
2018,07,14,05,41,11.70
2018,07,14,05,42,11.70
2018,07,14,05,43,11.60
2018,07,14,05,44,11.70
2018,07,14,05,45,11.70
2018,07,14,05,46,11.70
2018,07,14,05,47,11.70
2018,07,14,05,48,11.70
2018,07,14,05,49,11.70
2018,07,14,05,50,11.70
2018,07,14,05,51,11.70
2018,07,14,05,52,11.70
2018,07,14,05,53,11.70
2018,07,14,05,54,11.70
2018,07,14,05,55,11.70
2018,07,14,05,56,11.70
2018,07,14,05,57,11.70
2018,07,14,05,58,11.70
2018,07,14,05,59,11.70
2018,07,14,06,00,11.70
2018,07,14,06,01,11.70
2018,07,14,06,02,11.70
2018,07,14,06,03,11.70
2018,07,14,06,04,11.70
2018,07,14,06,05,11.70
2018,07,14,06,06,11.70
2018,07,14,06,07,11.70
2018,07,14,06,08,11.70
2018,07,14,06,09,11.70
2018,07,14,06,10,11.70
2018,07,14,06,11,11.70
2018,07,14,06,12,11.70
2018,07,14,06,13,11.70
2018,07,14,06,14,11.70
2018,07,14,06,15,11.70
2018,07,14,06,16,11.70
2018,07,14,06,17,11.70
2018,07,14,06,18,11.70
2018,07,14,06,19,11.70
2018,07,14,06,20,11.70
2018,07,14,06,21,11.70
2018,07,14,06,22,11.70
2018,07,14,06,23,11.70
2018,07,14,06,24,11.70
2018,07,14,06,25,11.80
2018,07,14,06,26,11.80
2018,07,14,06,27,11.80
2018,07,14,06,28,11.80
2018,07,14,06,29,11.80
2018,07,14,06,30,11.80
2018,07,14,06,31,11.80
2018,07,14,06,32,11.80
2018,07,14,06,33,11.80
2018,07,14,06,34,11.80
2018,07,14,06,35,11.90
2018,07,14,06,36,11.90
2018,07,14,06,37,11.90
2018,07,14,06,38,11.90
2018,07,14,06,39,11.90
2018,07,14,06,40,11.90
2018,07,14,06,41,11.90
2018,07,14,06,42,12.00
2018,07,14,06,43,12.00
2018,07,14,06,44,12.00
2018,07,14,06,45,12.10
2018,07,14,06,46,12.10
2018,07,14,06,47,12.10
2018,07,14,06,48,12.10
2018,07,14,06,49,12.10
2018,07,14,06,50,12.20
2018,07,14,06,51,12.20
2018,07,14,06,52,12.20
2018,07,14,06,53,12.20
2018,07,14,06,54,12.20
2018,07,14,06,55,12.20
2018,07,14,06,56,12.20
2018,07,14,06,57,12.30
2018,07,14,06,58,12.30
2018,07,14,06,59,12.30
2018,07,14,07,00,12.30
2018,07,14,07,01,12.30
2018,07,14,07,02,12.30
2018,07,14,07,03,12.40
2018,07,14,07,04,12.40
2018,07,14,07,05,12.40
2018,07,14,07,06,12.50
2018,07,14,07,07,12.50
2018,07,14,07,08,12.60
2018,07,14,07,09,12.60
2018,07,14,07,10,12.60
2018,07,14,07,11,12.70
2018,07,14,07,12,12.70
2018,07,14,07,13,12.70
2018,07,14,07,14,12.80
2018,07,14,07,15,12.80
2018,07,14,07,16,12.80
2018,07,14,07,17,12.90
2018,07,14,07,18,12.90
2018,07,14,07,19,12.90
2018,07,14,07,20,13.00
2018,07,14,07,21,13.10
2018,07,14,07,22,13.10
2018,07,14,07,23,13.20
2018,07,14,07,24,13.30
2018,07,14,07,25,13.30
2018,07,14,07,26,13.50
2018,07,14,07,27,13.50
2018,07,14,07,28,13.60
2018,07,14,07,29,13.80
2018,07,14,07,30,13.90
2018,07,14,07,31,14.00
2018,07,14,07,32,14.10
2018,07,14,07,33,14.20
2018,07,14,07,34,14.30
2018,07,14,07,35,14.50
2018,07,14,07,36,14.70
2018,07,14,07,37,14.80
2018,07,14,07,38,14.90
2018,07,14,07,39,15.10
2018,07,14,07,40,15.20
2018,07,14,07,41,15.40
2018,07,14,07,42,15.50
2018,07,14,07,43,15.60
2018,07,14,07,44,15.70
2018,07,14,07,45,15.80
2018,07,14,07,46,16.00
2018,07,14,07,47,16.00
2018,07,14,07,48,16.20
2018,07,14,07,49,16.30
2018,07,14,07,50,16.40
2018,07,14,07,51,16.40
2018,07,14,07,52,16.50
2018,07,14,07,53,16.60
2018,07,14,07,54,16.60
2018,07,14,07,55,16.70
2018,07,14,07,56,16.80
2018,07,14,07,57,16.80
2018,07,14,07,58,16.90
2018,07,14,07,59,17.00
2018,07,14,08,00,17.10
2018,07,14,08,01,17.20
2018,07,14,08,02,17.30
2018,07,14,08,03,17.40
2018,07,14,08,04,17.50
2018,07,14,08,05,17.60
2018,07,14,08,06,17.70
2018,07,14,08,07,17.90
2018,07,14,08,08,18.00
2018,07,14,08,09,18.10
2018,07,14,08,10,18.30
2018,07,14,08,11,18.50
2018,07,14,08,12,18.70
2018,07,14,08,13,18.90
2018,07,14,08,14,19.10
2018,07,14,08,15,19.30
2018,07,14,08,16,19.40
2018,07,14,08,17,19.60
2018,07,14,08,18,19.80
2018,07,14,08,19,19.90
2018,07,14,08,20,20.00
2018,07,14,08,21,20.20
2018,07,14,08,22,20.30
2018,07,14,08,23,20.50
2018,07,14,08,24,20.60
2018,07,14,08,25,20.70
2018,07,14,08,26,20.90
2018,07,14,08,27,21.00
2018,07,14,08,28,21.10
2018,07,14,08,29,21.30
2018,07,14,08,30,21.40
2018,07,14,08,31,21.50
2018,07,14,08,32,21.60
2018,07,14,08,33,21.70
2018,07,14,08,34,21.80
2018,07,14,08,35,21.90
2018,07,14,08,36,22.00
2018,07,14,08,37,22.00
2018,07,14,08,38,22.10
2018,07,14,08,39,22.20
2018,07,14,08,40,22.30
2018,07,14,08,41,22.30
2018,07,14,08,42,22.30
2018,07,14,08,43,22.30
2018,07,14,08,44,22.30
2018,07,14,08,45,22.30
2018,07,14,08,46,22.30
2018,07,14,08,47,22.30
2018,07,14,08,48,22.20
2018,07,14,08,49,22.20
2018,07,14,08,50,22.20
2018,07,14,08,51,22.20
2018,07,14,08,52,22.30
2018,07,14,08,53,22.30
2018,07,14,08,54,22.30
2018,07,14,08,55,22.40
2018,07,14,08,56,22.40
2018,07,14,08,57,22.50
2018,07,14,08,58,22.50
2018,07,14,08,59,22.50
2018,07,14,09,00,22.50
2018,07,14,09,01,22.50
2018,07,14,09,02,22.50
2018,07,14,09,03,22.50
2018,07,14,09,04,22.50
2018,07,14,09,05,22.50
2018,07,14,09,06,22.60
2018,07,14,09,07,22.60
2018,07,14,09,08,22.60
2018,07,14,09,09,22.60
2018,07,14,09,10,22.70
2018,07,14,09,11,22.60
2018,07,14,09,12,22.60
2018,07,14,09,13,22.50
2018,07,14,09,14,22.50
2018,07,14,09,15,22.50
2018,07,14,09,16,22.50
2018,07,14,09,17,22.60
2018,07,14,09,18,22.60
2018,07,14,09,19,22.60
2018,07,14,09,20,22.60
2018,07,14,09,21,22.60
2018,07,14,09,22,22.70
2018,07,14,09,23,22.80
2018,07,14,09,24,22.90
2018,07,14,09,25,22.90
2018,07,14,09,26,23.00
2018,07,14,09,27,23.10
2018,07,14,09,28,23.20
2018,07,14,09,29,23.40
2018,07,14,09,30,23.40
2018,07,14,09,31,23.50
2018,07,14,09,32,23.50
2018,07,14,09,33,23.60
2018,07,14,09,34,23.60
2018,07,14,09,35,23.60
2018,07,14,09,36,23.60
2018,07,14,09,37,23.60
2018,07,14,09,38,23.60
2018,07,14,09,39,23.50
2018,07,14,09,40,23.50
2018,07,14,09,41,23.50
2018,07,14,09,42,23.50
2018,07,14,09,43,23.50
2018,07,14,09,44,23.50
2018,07,14,09,45,23.40
2018,07,14,09,46,23.50
2018,07,14,09,47,23.50
2018,07,14,09,48,23.50
2018,07,14,09,49,23.50
2018,07,14,09,50,23.60
2018,07,14,09,51,23.50
2018,07,14,09,52,23.50
2018,07,14,09,53,23.40
2018,07,14,09,54,23.40
2018,07,14,09,55,23.50
2018,07,14,09,56,23.60
2018,07,14,09,57,23.60
2018,07,14,09,58,23.70
2018,07,14,09,59,23.80
2018,07,14,10,00,23.80
2018,07,14,10,01,23.80
2018,07,14,10,02,23.70
2018,07,14,10,03,23.70
2018,07,14,10,04,23.70
2018,07,14,10,05,23.70
2018,07,14,10,06,23.70
2018,07,14,10,07,23.70
2018,07,14,10,08,23.70
2018,07,14,10,09,23.80
2018,07,14,10,10,23.90
2018,07,14,10,11,23.90
2018,07,14,10,12,23.90
2018,07,14,10,13,23.80
2018,07,14,10,14,23.80
2018,07,14,10,15,23.80
2018,07,14,10,16,23.80
2018,07,14,10,17,23.80
2018,07,14,10,18,23.80
2018,07,14,10,19,23.70
2018,07,14,10,20,23.80
2018,07,14,10,21,23.80
2018,07,14,10,22,23.90
2018,07,14,10,23,23.90
2018,07,14,10,24,23.90
2018,07,14,10,25,23.90
2018,07,14,10,26,24.00
2018,07,14,10,27,24.00
2018,07,14,10,28,24.00
2018,07,14,10,29,24.00
2018,07,14,10,30,24.10
2018,07,14,10,31,24.10
2018,07,14,10,32,24.10
2018,07,14,10,33,24.20
2018,07,14,10,34,24.20
2018,07,14,10,35,24.20
2018,07,14,10,36,24.30
2018,07,14,10,37,24.40
2018,07,14,10,38,24.40
2018,07,14,10,39,24.40
2018,07,14,10,40,24.50
2018,07,14,10,41,24.50
2018,07,14,10,42,24.60
2018,07,14,10,43,24.60
2018,07,14,10,44,24.60
2018,07,14,10,45,24.60
2018,07,14,10,46,24.70
2018,07,14,10,47,24.70
2018,07,14,10,48,24.70
2018,07,14,10,49,24.70
2018,07,14,10,50,24.70
2018,07,14,10,51,24.70
2018,07,14,10,52,24.70
2018,07,14,10,53,24.80
2018,07,14,10,54,24.90
2018,07,14,10,55,25.00
2018,07,14,10,56,25.10
2018,07,14,10,57,25.20
2018,07,14,10,58,25.30
2018,07,14,10,59,25.40
2018,07,14,11,00,25.50
2018,07,14,11,01,25.50
2018,07,14,11,02,25.50
2018,07,14,11,03,25.50
2018,07,14,11,04,25.50
2018,07,14,11,05,25.40
2018,07,14,11,06,25.40
2018,07,14,11,07,25.40
2018,07,14,11,08,25.30
2018,07,14,11,09,25.20
2018,07,14,11,10,25.20
2018,07,14,11,11,25.20
2018,07,14,11,12,25.30
2018,07,14,11,13,25.30
2018,07,14,11,14,25.20
2018,07,14,11,15,25.10
2018,07,14,11,16,25.10
2018,07,14,11,17,25.10
2018,07,14,11,18,25.20
2018,07,14,11,19,25.30
2018,07,14,11,20,25.30
2018,07,14,11,21,25.20
2018,07,14,11,22,25.20
2018,07,14,11,23,25.30
2018,07,14,11,24,25.30
2018,07,14,11,25,25.30
2018,07,14,11,26,25.40
2018,07,14,11,27,25.40
2018,07,14,11,28,25.40
2018,07,14,11,29,25.40
2018,07,14,11,30,25.50
2018,07,14,11,31,25.50
2018,07,14,11,32,25.60
2018,07,14,11,33,25.70
2018,07,14,11,34,25.70
2018,07,14,11,35,25.80
2018,07,14,11,36,25.90
2018,07,14,11,37,26.00
2018,07,14,11,38,26.10
2018,07,14,11,39,26.20
2018,07,14,11,40,26.30
2018,07,14,11,41,26.30
2018,07,14,11,42,26.30
2018,07,14,11,43,26.20
2018,07,14,11,44,26.20
2018,07,14,11,45,26.10
2018,07,14,11,46,26.10
2018,07,14,11,47,26.10
2018,07,14,11,48,26.10
2018,07,14,11,49,26.00
2018,07,14,11,50,26.00
2018,07,14,11,51,25.90
2018,07,14,11,52,25.80
2018,07,14,11,53,25.70
2018,07,14,11,54,25.70
2018,07,14,11,55,25.70
2018,07,14,11,56,25.60
2018,07,14,11,57,25.60
2018,07,14,11,58,25.70
2018,07,14,11,59,25.70
2018,07,14,12,00,25.80
2018,07,14,12,01,25.80
2018,07,14,12,02,25.70
2018,07,14,12,03,25.70
2018,07,14,12,04,25.70
2018,07,14,12,05,25.70
2018,07,14,12,06,25.80
2018,07,14,12,07,25.90
2018,07,14,12,08,26.00
2018,07,14,12,09,26.00
2018,07,14,12,10,25.90
2018,07,14,12,11,26.00
2018,07,14,12,12,26.10
2018,07,14,12,13,26.20
2018,07,14,12,14,26.30
2018,07,14,12,15,26.40
2018,07,14,12,16,26.30
2018,07,14,12,17,26.30
2018,07,14,12,18,26.30
2018,07,14,12,19,26.30
2018,07,14,12,20,26.30
2018,07,14,12,21,26.30
2018,07,14,12,22,26.30
2018,07,14,12,23,26.30
2018,07,14,12,24,26.40
2018,07,14,12,25,26.50
2018,07,14,12,26,26.50
2018,07,14,12,27,26.70
2018,07,14,12,28,26.80
2018,07,14,12,29,26.80
2018,07,14,12,30,26.80
2018,07,14,12,31,26.80
2018,07,14,12,32,26.90
2018,07,14,12,33,26.90
2018,07,14,12,34,26.90
2018,07,14,12,35,26.90
2018,07,14,12,36,26.90
2018,07,14,12,37,26.90
2018,07,14,12,38,26.80
2018,07,14,12,39,26.70
2018,07,14,12,40,26.70
2018,07,14,12,41,26.80
2018,07,14,12,42,26.80
2018,07,14,12,43,26.80
2018,07,14,12,44,26.80
2018,07,14,12,45,26.80
2018,07,14,12,46,26.90
2018,07,14,12,47,26.90
2018,07,14,12,48,27.00
2018,07,14,12,49,27.10
2018,07,14,12,50,27.20
2018,07,14,12,51,27.30
2018,07,14,12,52,27.30
2018,07,14,12,53,27.30
2018,07,14,12,54,27.30
2018,07,14,12,55,27.30
2018,07,14,12,56,27.30
2018,07,14,12,57,27.30
2018,07,14,12,58,27.30
2018,07,14,12,59,27.10
2018,07,14,13,00,27.00
2018,07,14,13,01,27.00
2018,07,14,13,02,27.00
2018,07,14,13,03,27.00
2018,07,14,13,04,27.10
2018,07,14,13,05,27.20
2018,07,14,13,06,27.30
2018,07,14,13,07,27.40
2018,07,14,13,08,27.50
2018,07,14,13,09,27.60
2018,07,14,13,10,27.70
2018,07,14,13,11,27.80
2018,07,14,13,12,27.90
2018,07,14,13,13,28.00
2018,07,14,13,14,28.10
2018,07,14,13,15,28.10
2018,07,14,13,16,28.10
2018,07,14,13,17,28.20
2018,07,14,13,18,28.30
2018,07,14,13,19,28.30
2018,07,14,13,20,28.30
2018,07,14,13,21,28.40
2018,07,14,13,22,28.40
2018,07,14,13,23,28.50
2018,07,14,13,24,28.50
2018,07,14,13,25,28.60
2018,07,14,13,26,28.60
2018,07,14,13,27,28.60
2018,07,14,13,28,28.70
2018,07,14,13,29,28.80
2018,07,14,13,30,28.80
2018,07,14,13,31,28.80
2018,07,14,13,32,28.80
2018,07,14,13,33,28.70
2018,07,14,13,34,28.60
2018,07,14,13,35,28.60
2018,07,14,13,36,28.60
2018,07,14,13,37,28.60
2018,07,14,13,38,28.50
2018,07,14,13,39,28.40
2018,07,14,13,40,28.50
2018,07,14,13,41,28.50
2018,07,14,13,42,28.50
2018,07,14,13,43,28.60
2018,07,14,13,44,28.70
2018,07,14,13,45,28.80
2018,07,14,13,46,28.80
2018,07,14,13,47,28.80
2018,07,14,13,48,28.80
2018,07,14,13,49,28.90
2018,07,14,13,50,28.90
2018,07,14,13,51,28.90
2018,07,14,13,52,29.00
2018,07,14,13,53,29.10
2018,07,14,13,54,29.20
2018,07,14,13,55,29.20
2018,07,14,13,56,29.20
2018,07,14,13,57,29.30
2018,07,14,13,58,29.30
2018,07,14,13,59,29.30
2018,07,14,14,00,29.30
2018,07,14,14,01,29.20
2018,07,14,14,02,29.10
2018,07,14,14,03,29.10
2018,07,14,14,04,29.10
2018,07,14,14,05,29.10
2018,07,14,14,06,29.10
2018,07,14,14,07,29.20
2018,07,14,14,08,29.30
2018,07,14,14,09,29.30
2018,07,14,14,10,29.40
2018,07,14,14,11,29.50
2018,07,14,14,12,29.50
2018,07,14,14,13,29.60
2018,07,14,14,14,29.60
2018,07,14,14,15,29.60
2018,07,14,14,16,29.50
2018,07,14,14,17,29.40
2018,07,14,14,18,29.30
2018,07,14,14,19,29.20
2018,07,14,14,20,29.10
2018,07,14,14,21,29.00
2018,07,14,14,22,29.10
2018,07,14,14,23,29.10
2018,07,14,14,24,29.20
2018,07,14,14,25,29.30
2018,07,14,14,26,29.50
2018,07,14,14,27,29.70
2018,07,14,14,28,29.80
2018,07,14,14,29,29.80
2018,07,14,14,30,29.90
2018,07,14,14,31,30.00
2018,07,14,14,32,30.10
2018,07,14,14,33,30.10
2018,07,14,14,34,30.10
2018,07,14,14,35,30.10
2018,07,14,14,36,30.10
2018,07,14,14,37,30.00
2018,07,14,14,38,30.00
2018,07,14,14,39,30.00
2018,07,14,14,40,30.00
2018,07,14,14,41,30.00
2018,07,14,14,42,30.10
2018,07,14,14,43,30.20
2018,07,14,14,44,30.30
2018,07,14,14,45,30.40
2018,07,14,14,46,30.40
2018,07,14,14,47,30.40
2018,07,14,14,48,30.30
2018,07,14,14,49,30.20
2018,07,14,14,50,30.10
2018,07,14,14,51,30.10
2018,07,14,14,52,30.10
2018,07,14,14,53,30.00
2018,07,14,14,54,29.90
2018,07,14,14,55,29.80
2018,07,14,14,56,29.80
2018,07,14,14,57,29.80
2018,07,14,14,58,29.90
2018,07,14,14,59,29.90
2018,07,14,15,00,30.00
2018,07,14,15,01,30.10
2018,07,14,15,02,30.10
2018,07,14,15,03,30.20
2018,07,14,15,04,30.30
2018,07,14,15,05,30.40
2018,07,14,15,06,30.50
2018,07,14,15,07,30.50
2018,07,14,15,08,30.50
2018,07,14,15,09,30.40
2018,07,14,15,10,30.30
2018,07,14,15,11,30.30
2018,07,14,15,12,30.30
2018,07,14,15,13,30.30
2018,07,14,15,14,30.30
2018,07,14,15,15,30.30
2018,07,14,15,16,30.30
2018,07,14,15,17,30.30
2018,07,14,15,18,30.30
2018,07,14,15,19,30.40
2018,07,14,15,20,30.40
2018,07,14,15,21,30.40
2018,07,14,15,22,30.40
2018,07,14,15,23,30.50
2018,07,14,15,24,30.50
2018,07,14,15,25,30.60
2018,07,14,15,26,30.70
2018,07,14,15,27,30.80
2018,07,14,15,28,30.90
2018,07,14,15,29,31.00
2018,07,14,15,30,31.00
2018,07,14,15,31,31.00
2018,07,14,15,32,30.90
2018,07,14,15,33,30.80
2018,07,14,15,34,30.70
2018,07,14,15,35,30.60
2018,07,14,15,36,30.60
2018,07,14,15,37,30.50
2018,07,14,15,38,30.40
2018,07,14,15,39,30.40
2018,07,14,15,40,30.30
2018,07,14,15,41,30.20
2018,07,14,15,42,30.20
2018,07,14,15,43,30.30
2018,07,14,15,44,30.40
2018,07,14,15,45,30.50
2018,07,14,15,46,30.50
2018,07,14,15,47,30.40
2018,07,14,15,48,30.30
2018,07,14,15,49,30.20
2018,07,14,15,50,30.20
2018,07,14,15,51,30.20
2018,07,14,15,52,30.20
2018,07,14,15,53,30.20
2018,07,14,15,54,30.30
2018,07,14,15,55,30.30
2018,07,14,15,56,30.40
2018,07,14,15,57,30.40
2018,07,14,15,58,30.40
2018,07,14,15,59,30.50
2018,07,14,16,00,30.50
2018,07,14,16,01,30.60
2018,07,14,16,02,30.70
2018,07,14,16,03,30.70
2018,07,14,16,04,30.80
2018,07,14,16,05,30.80
2018,07,14,16,06,30.80
2018,07,14,16,07,30.80
2018,07,14,16,08,30.70
2018,07,14,16,09,30.80
2018,07,14,16,10,30.80
2018,07,14,16,11,30.80
2018,07,14,16,12,30.80
2018,07,14,16,13,30.80
2018,07,14,16,14,30.80
2018,07,14,16,15,30.80
2018,07,14,16,16,30.90
2018,07,14,16,17,31.00
2018,07,14,16,18,31.00
2018,07,14,16,19,31.00
2018,07,14,16,20,30.80
2018,07,14,16,21,30.80
2018,07,14,16,22,30.70
2018,07,14,16,23,30.60
2018,07,14,16,24,30.60
2018,07,14,16,25,30.50
2018,07,14,16,26,30.50
2018,07,14,16,27,30.50
2018,07,14,16,28,30.60
2018,07,14,16,29,30.60
2018,07,14,16,30,30.60
2018,07,14,16,31,30.60
2018,07,14,16,32,30.60
2018,07,14,16,33,30.60
2018,07,14,16,34,30.60
2018,07,14,16,35,30.70
2018,07,14,16,36,30.70
2018,07,14,16,37,30.60
2018,07,14,16,38,30.60
2018,07,14,16,39,30.70
2018,07,14,16,40,30.70
2018,07,14,16,41,30.70
2018,07,14,16,42,30.70
2018,07,14,16,43,30.70
2018,07,14,16,44,30.70
2018,07,14,16,45,30.70
2018,07,14,16,46,30.60
2018,07,14,16,47,30.50
2018,07,14,16,48,30.50
2018,07,14,16,49,30.40
2018,07,14,16,50,30.50
2018,07,14,16,51,30.60
2018,07,14,16,52,30.70
2018,07,14,16,53,30.80
2018,07,14,16,54,30.80
2018,07,14,16,55,30.80
2018,07,14,16,56,30.80
2018,07,14,16,57,30.80
2018,07,14,16,58,30.80
2018,07,14,16,59,30.80
2018,07,14,17,00,30.80
2018,07,14,17,01,30.90
2018,07,14,17,02,30.90
2018,07,14,17,03,30.90
2018,07,14,17,04,30.90
2018,07,14,17,05,30.80
2018,07,14,17,06,30.80
2018,07,14,17,07,30.80
2018,07,14,17,08,30.80
2018,07,14,17,09,30.70
2018,07,14,17,10,30.80
2018,07,14,17,11,30.80
2018,07,14,17,12,30.80
2018,07,14,17,13,30.90
2018,07,14,17,14,30.90
2018,07,14,17,15,30.90
2018,07,14,17,16,30.80
2018,07,14,17,17,30.70
2018,07,14,17,18,30.70
2018,07,14,17,19,30.70